Home > Weather > Sion > Past weeks

Flag for Switzerland Past Weather in Sion, Valais, Switzerland — Yesterday and Last 2 Weeks

Now
67 °F

Mild.


Feels Like: 67 °F
Forecast: 63 / 82 °F
Wind: 3 mph from Northeast

Location: Sion

Current Time: Jul 1, 2016 at 10:12:24 AM

Latest Report: Jul 1, 2016 at 9:00 AM


Visibility: N/A

Pressure: 30.07 "Hg (28.32 "Hg at 514m altitude)

Humidity: 63%

Dew Point: 54 °F

Location of SionLocation

Past Weather in Sion — Graph

°F

Sion Temperature Yesterday

Maximum temperature yesterday: 79 °F (at 3:00 PM)
Minimum temperature yesterday: 62 °F (at 6:00 AM)
Average temperature yesterday: 70 °F

High & Low Weather Summary for the Past Weeks

 TemperatureHumidityPressure
High93 °F (Jun 23, 4:00 PM)94% (Jun 16, 10:00 PM)30.29 "Hg (Jun 16, 10:00 PM)
Low50 °F (Jun 20, 5:00 AM)24% (Jun 29, 5:00 PM)29.58 "Hg (Jun 16, 4:00 PM)
Average68 °F62%30.03 "Hg
* Reported Jun 16 8:00 AM — Jul 1 8:00 AM, Sion, Weather by CustomWeather, © 2016

Note: Actual official high and low records may vary slightly from our data, if they occured in-between our weather recording intervals... More about our weather records

Advertising

Sion Weather History for the Previous 24 Hours

Scroll right to see more
 ConditionsComfort  
Time TempWeatherWind HumidityBarometerVisibility
8:00 AM
Fri, Jul 1
65 °FPassing clouds.3 mph74%30.09 "Hg22 mi
7:00 AM62 °FCool.3 mph82%30.10 "HgN/A
6:00 AM60 °FCool.2 mph83%30.10 "HgN/A
5:00 AM60 °FPassing clouds.2 mph85%30.09 "Hg12 mi
4:00 AM59 °FCool.1 mph92%30.09 "HgN/A
3:00 AM61 °FCool.No wind92%30.09 "HgN/A
2:00 AM61 °FClear.2 mph90%30.08 "Hg12 mi
1:00 AM62 °FMild.2 mph88%30.06 "HgN/A
12:00 AM65 °FMild.1 mph84%30.06 "HgN/A
11:00 PM
Thu, Jun 30
65 °FPassing clouds.1 mph86%30.05 "Hg16 mi
10:00 PM66 °FMild.2 mph88%30.02 "HgN/A
9:00 PM70 °FMild.2 mph80%29.98 "HgN/A
8:00 PM72 °FOvercast.2 mph69%29.96 "Hg16 mi
7:00 PM72 °FMild.6 mph74%29.95 "HgN/A
6:00 PM74 °FMild.7 mph66%29.93 "HgN/A
5:00 PM75 °FOvercast.15 mph59%29.91 "Hg16 mi
4:00 PM77 °FWarm.13 mph54%29.90 "HgN/A
3:00 PM79 °FWarm.14 mph51%29.89 "HgN/A
2:00 PM78 °FOvercast.10 mph52%29.91 "Hg19 mi
1:00 PM76 °FMild.3 mph51%29.93 "HgN/A
12:00 PM75 °FMild.6 mph53%29.95 "HgN/A
11:00 AM72 °FOvercast.2 mph63%29.97 "Hg19 mi
10:00 AM69 °FMild.3 mph70%29.98 "HgN/A
Weather by CustomWeather, © 2016

See weather overviewHow to use our weather pages